Weather History for Iliamna, AK

Change the Weather History Date:

Friday, August 30, 2013

  Actual Average Record
Temperature  
Mean Temperature 57 °F -  
Max Temperature 66 °F 58 °F 74 °F (1987)
Min Temperature 50 °F 45 °F 33 °F (1984)
Degree Days  
Heating Degree Days 8    
Growing Degree Days 7 (Base 50)    
Moisture  
Dew Point 50 °F    
Average Humidity 79    
Maximum Humidity 93    
Minimum Humidity 48    
Precipitation  
Precipitation 0.00 in - - ()
Sea Level Pressure  
Sea Level Pressure 29.99 in    
Wind  
Wind Speed 3 mph (West)    
Max Wind Speed 10 mph    
Max Gust Speed -    
Visibility 10 miles    
Events      
Averages and records for this station are not official NWS values.
T = Trace of Precipitation, MM = Missing Value Source: NWS Daily Summary

Daily Weather History Graph

Daily Weather History Graph

Search for Another Location

Airport:

Trip Planner

Search our weather history database for the weather conditions in past years. The results will help you decide how hot, cold, wet, or windy it might be!

Date:

Astronomy

Aug. 30, 2013 Rise Set
Actual Time 7:11 AM AKDT 9:26 PM AKDT
Civil Twilight 6:26 AM AKDT 10:11 PM AKDT
Nautical Twilight 5:27 AM AKDT 11:09 PM AKDT
Astronomical Twilight 4:10 AM AKDT 12:25 AM AKDT
Moon 1:10 AM AKDT (8/30) 6:36 PM AKDT (8/30)
Length of Visible Light 15h 44m
Length of Day
14h 15m
Waning Crescent, 28% of the Moon is Illuminated
Aug 30
Waning Crescent
Sep 5
New
Sep 12
First Quarter
Sep 19
Full
Sep 26
Last Quarter

Hourly Weather History & Observations

Time (AKDT) Temp. Dew Point Humidity Pressure Visibility Wind Dir Wind Speed Gust Speed Precip Events Conditions
12:53 AM 53.1 °F 51.1 °F 93% 29.91 in 10.0 mi WNW 4.6 mph - N/A   Mostly Cloudy
1:53 AM 53.1 °F 50.0 °F 89% 29.92 in 10.0 mi Calm Calm - N/A   Overcast
2:53 AM 52.0 °F 50.0 °F 93% 29.94 in 10.0 mi Calm Calm - N/A   Overcast
3:53 AM 52.0 °F 50.0 °F 93% 29.96 in 10.0 mi NW 4.6 mph - N/A   Overcast
4:53 AM 52.0 °F 50.0 °F 93% 29.97 in 10.0 mi WNW 3.5 mph - N/A   Overcast
5:53 AM 50.0 °F 48.0 °F 93% 29.97 in 10.0 mi Calm Calm - N/A   Mostly Cloudy
6:53 AM 51.1 °F 48.9 °F 92% 29.98 in 10.0 mi Calm Calm - N/A   Overcast
7:53 AM 52.0 °F 48.9 °F 89% 29.99 in 10.0 mi NNW 4.6 mph - N/A   Overcast
8:53 AM 53.1 °F 48.9 °F 86% 30.00 in 10.0 mi NNW 3.5 mph - N/A   Overcast
9:53 AM 54.0 °F 50.0 °F 86% 30.01 in 10.0 mi Calm Calm - N/A   Overcast
10:53 AM 57.0 °F 50.0 °F 77% 30.01 in 10.0 mi Calm Calm - N/A   Mostly Cloudy
11:53 AM 59.0 °F 52.0 °F 78% 30.01 in 10.0 mi Calm Calm - N/A   Clear
12:53 PM 61.0 °F 51.1 °F 70% 30.01 in 10.0 mi Calm Calm - N/A   Partly Cloudy
1:53 PM 62.1 °F 53.1 °F 72% 30.01 in 10.0 mi SSW 4.6 mph - N/A   Clear
2:53 PM 63.0 °F 54.0 °F 72% 30.00 in 10.0 mi SSW 8.1 mph - N/A   Clear
3:53 PM 64.0 °F 52.0 °F 65% 30.00 in 10.0 mi SW 9.2 mph - N/A   Partly Cloudy
4:53 PM 64.0 °F 53.1 °F 67% 30.00 in 10.0 mi SW 10.4 mph - N/A   Mostly Cloudy
5:53 PM 64.9 °F 45.0 °F 48% 30.00 in 10.0 mi WNW 5.8 mph - N/A   Scattered Clouds
6:53 PM 62.1 °F 48.9 °F 62% 30.00 in 10.0 mi WSW 6.9 mph - N/A   Mostly Cloudy
7:53 PM 61.0 °F 50.0 °F 67% 30.00 in 10.0 mi WSW 4.6 mph - N/A   Clear
8:53 PM 57.9 °F 50.0 °F 75% 30.00 in 10.0 mi West 5.8 mph - N/A   Clear
9:53 PM 55.9 °F 48.9 °F 77% 30.00 in 10.0 mi NNW 3.5 mph - N/A   Clear
10:53 PM 52.0 °F 46.9 °F 83% 30.01 in 10.0 mi West 4.6 mph - N/A   Clear
11:53 PM 50.0 °F 48.0 °F 93% 30.00 in 10.0 mi Calm Calm - N/A   Scattered Clouds